This demonstration page uses our WeatherBlox Daily Observations layout. Learn more.

38.88101, -77.10428

Hourly Observations for September 17, 2020

Temp ( °F °C ) Dew Point ( °F °C ) Humidity (%) Winds ( mph kmh ) Pressure ( in mb ) Visibility ( mi km ) Precip ( " mm )
12:52 am 00:52 Cloudy 66 18.9 62 16.7 87 87 SW 3 6 30.11 1020 10 16.0934 0 0
1:41 am 01:41 Cloudy 67 19.4 61 16.1 81 81 Calm 30.1 1019 10 16.0934 0 0
1:52 am 01:52 Cloudy 67 19.4 60 15.6 79 79 Calm 30.09 1019 10 16.0934 0 0
2:52 am 02:52 Cloudy 67 19.4 60 15.6 79 79 Calm 30.07 1018 10 16.0934 0 0
3:52 am 03:52 Cloudy 67 19.4 60 15.6 79 79 NNW 3 6 30.06 1018 10 16.0934 0 0
4:52 am 04:52 Cloudy 68 20 58 14.4 70 70 Calm 30.05 1018 10 16.0934 0 0
5:52 am 05:52 Cloudy 68 20 58 14.4 70 70 Calm 30.05 1018 10 16.0934 0 0
6:45 am 06:45 Cloudy 68 20 58 14.4 70 70 Calm 30.05 1018 10 16.0934 0 0
6:52 am 06:52 Cloudy 68 20 58 14.4 70 70 Calm 30.05 1018 10 16.0934 0 0
7:52 am 07:52 Cloudy 68 20 59 15 73 73 Calm 30.06 1018 10 16.0934 0 0
8:44 am 08:44 Cloudy 69 20.6 59 15 70 70 Calm 30.06 1018 10 16.0934 0 0
8:52 am 08:52 Cloudy 69 20.6 60 15.6 73 73 Calm 30.06 1018 10 16.0934 0 0
9:12 am 09:12 Cloudy 70 21.1 60 15.6 71 71 NNE 3 6 30.06 1018 10 16.0934 0 0
9:52 am 09:52 Cloudy 70 21.1 60 15.6 71 71 Calm 30.06 1018 10 16.0934 0 0
10:52 am 10:52 Cloudy 72 22.2 61 16.1 68 68 Calm 30.05 1018 10 16.0934 0 0
11:52 am 11:52 Cloudy 72 22.2 61 16.1 68 68 Calm 30.05 1018 10 16.0934 0 0
12:52 pm 12:52 Cloudy 73 22.8 62 16.7 69 69 Calm 30.04 1017 10 16.0934 0 0
1:52 pm 13:52 Cloudy 73 22.8 64 17.8 74 74 S 6 9 30.02 1017 10 16.0934 0 0
2:52 pm 14:52 Cloudy 72 22.2 66 18.9 82 82 S 9 15 30 1016 10 16.0934 0 0
3:52 pm 15:52 Mostly Cloudy with Light Rain 72 22.2 66 18.9 82 82 SSE 5 7 29.98 1015 10 16.0934 0.001 0.001
4:52 pm 16:52 Cloudy with Light Rain 71 21.7 66 18.9 84 84 SSE 5 7 29.97 1015 9 14.48406 0.01 0.254
5:52 pm 17:52 Cloudy with Light Rain 70 21.1 67 19.4 90 90 Calm 29.96 1015 6 9.65604 0.08 2.032
6:52 pm 18:52 Cloudy with Light Rain 69 20.6 67 19.4 93 93 Calm 29.96 1014 5 8.0467 0.07 1.778
7:52 pm 19:52 Cloudy with Light Rain 70 21.1 67 19.4 90 90 ESE 3 6 29.96 1015 7 11.26538 0.07 1.778
8:14 pm 20:14 Cloudy with Light Rain 69 20.6 67 19.4 93 93 Calm 29.96 1015 8 12.87472 0.02 0.508
8:52 pm 20:52 Cloudy with Light Rain 69 20.6 67 19.4 93 93 Calm 29.96 1015 7 11.26538 0.06 1.524
9:08 pm 21:08 Cloudy with Light Rain 69 20.6 67 19.4 93 93 Calm 29.97 1015 7 11.26538 0.02 0.508
9:29 pm 21:29 Cloudy with Light Rain 69 20.6 67 19.4 93 93 Calm 29.97 1015 7 11.26538 0.04 1.016
9:41 pm 21:41 Cloudy with Light Rain 70 21.1 67 19.4 90 90 Calm 29.97 1015 9 14.48406 0.04 1.016
9:52 pm 21:52 Cloudy with Light Rain 70 21.1 67 19.4 90 90 Calm 29.96 1015 8 12.87472 0.05 1.27
9:59 pm 21:59 Cloudy with Light Rain 70 21.1 67 19.4 90 90 Calm 29.96 1015 8 12.87472 0.01 0.254
10:33 pm 22:33 Cloudy with Light Rain 70 21.1 67 19.4 90 90 E 3 6 29.95 1014 10 16.0934 0.03 0.762
10:52 pm 22:52 Cloudy with Light Rain 69 20.6 67 19.4 93 93 ESE 6 9 29.94 1014 10 16.0934 0.03 0.762
11:04 pm 23:04 Cloudy with Light Rain 69 20.6 67 19.4 93 93 Calm 29.95 1014 10 16.0934 0.001 0.001
11:52 pm 23:52 Cloudy with Light Rain 69 20.6 66 18.9 90 90 NE 8 13 29.94 1014 9 14.48406 0.01 0.254

Powered by AerisWeather